GFSWCAN_prec_cthk_024.txt.gz
RH
84 71 71 66 71 71 68 69 67 65 60 51 45 40 39 40 38 38 37 37 40 43 46 51 53 57 53 53 59 49 44 42 41 44 42 40 43 40 36 33 43 46 54 57 56 63 64 55 59 72 72 77 84 83
89 80 73 68 67 72 70 67 67 64 59 54 49 45 42 38 39 40 39 36 35 39 42 45 48 51 49 47 50 44 39 37 36 39 40 41 43 47 46 41 33 46 44 51 52 55 59 69 71 74 80 84 87 86
95 84 70 66 64 69 71 69 66 64 60 57 52 48 45 44 41 38 41 40 39 38 40 40 41 38 38 40 39 39 39 38 39 42 42 43 46 42 45 42 36 35 37 46 52 51 62 68 74 80 83 87 87 87
97 90 86 71 62 65 68 69 67 65 62 60 56 52 48 46 44 42 43 41 43 42 44 45 42 39 37 35 37 37 38 38 42 42 44 42 42 39 47 38 44 38 39 42 50 57 67 82 84 87 87 84 80 77
99 98 95 87 73 66 65 64 64 64 62 59 57 55 52 49 47 46 45 45 46 48 50 48 43 42 40 39 41 40 41 42 44 46 45 45 43 42 48 52 47 35 36 50 61 65 75 83 90 90 86 79 74 70
99 98 95 90 83 73 68 65 63 61 59 57 55 53 53 52 50 49 55 49 49 50 47 49 49 46 45 46 48 47 49 49 50 51 50 46 44 48 55 52 35 35 44 57 66 75 84 88 88 83 79 76 71 71
94 98 98 99 92 84 75 71 67 65 63 61 58 55 54 53 53 58 59 60 56 56 55 56 56 52 49 51 53 53 53 53 53 53 54 51 50 54 58 54 36 43 55 66 75 81 86 85 83 80 75 74 71 60
78 82 92 96 96 95 91 82 77 77 75 70 67 65 63 61 60 61 61 60 63 66 64 65 63 58 58 61 63 62 60 58 59 58 59 57 57 59 61 42 47 57 71 77 83 88 86 83 78 74 70 63 55 45
60 67 70 75 89 92 96 96 93 92 91 90 82 78 72 71 70 71 71 69 68 71 72 66 66 67 61 63 64 63 63 63 61 60 59 60 61 57 46 51 66 73 79 84 87 84 79 78 74 68 63 52 45 45
54 53 55 60 57 68 81 87 94 97 98 96 92 86 81 79 81 78 78 75 74 71 68 65 62 64 61 64 65 63 64 68 68 66 72 71 64 58 57 70 81 83 86 88 86 82 80 78 70 62 54 49 47 40
50 49 47 50 54 52 54 72 82 92 99 98 97 95 91 92 90 90 92 90 83 74 69 67 66 65 67 68 70 70 73 78 79 74 80 76 69 66 75 82 85 89 89 88 85 82 76 69 63 57 52 48 40 35
44 44 43 43 45 46 50 58 72 88 95 99 99 98 98 98 99 99 97 94 87 82 76 76 79 76 76 84 87 90 88 89 87 84 89 81 74 79 84 83 84 84 83 78 75 74 71 64 58 51 45 38 34 33
36 42 41 40 42 43 48 52 59 77 92 98 98 99 99 98 98 98 93 87 86 83 81 81 84 87 89 92 97 97 98 98 94 91 87 83 87 87 85 83 82 80 74 75 76 71 64 56 50 42 36 35 35 32
27 35 37 39 39 39 44 50 55 62 81 93 98 98 98 98 97 97 94 91 90 90 92 93 94 96 97 98 99 98 98 97 97 93 90 94 89 87 86 86 85 80 79 75 69 61 54 47 41 37 37 35 33 32
25 37 39 40 42 43 44 50 53 56 64 80 90 97 97 97 97 97 97 98 97 97 98 98 97 98 98 99 98 98 97 97 96 97 98 92 90 90 87 84 81 80 75 69 60 53 47 40 38 37 34 33 32 30
19 27 38 41 45 47 48 47 54 56 54 66 79 86 91 96 97 97 97 98 98 98 98 98 98 98 98 98 98 98 97 97 99 96 92 89 87 86 86 83 79 70 63 57 52 45 40 38 36 34 31 30 31 33
20 29 37 46 48 49 52 55 61 63 56 56 66 76 83 84 91 96 96 96 96 97 97 96 97 97 97 97 97 96 98 96 92 91 88 87 85 80 74 68 64 59 54 47 42 39 37 34 31 30 30 33 40 45
26 29 32 45 53 54 57 61 70 71 69 67 71 70 72 76 79 80 84 88 92 94 94 97 92 95 94 92 91 95 90 85 83 81 76 73 71 68 64 60 54 46 40 37 34 32 30 30 32 35 39 47 53 58
34 33 33 46 54 60 64 67 67 72 74 76 79 78 75 72 71 74 78 83 88 91 92 93 95 88 85 81 81 78 75 70 71 69 65 63 60 56 51 43 38 34 33 33 32 32 34 37 40 43 48 54 63 76
34 39 40 52 59 67 69 71 71 74 72 76 82 83 80 73 72 74 74 73 73 77 76 75 77 79 76 70 62 62 61 59 57 55 52 48 46 44 42 38 35 34 33 33 34 39 43 45 46 51 59 75 80 79
35 37 45 63 74 73 73 69 71 75 75 85 83 84 86 82 80 79 75 73 71 70 64 60 58 56 53 51 49 48 46 44 42 41 40 39 39 38 35 34 35 39 42 46 50 48 51 54 57 59 66 74 77 78
40 47 64 74 77 76 81 85 81 83 87 86 86 85 83 81 81 79 73 70 68 62 57 53 52 51 49 47 44 39 38 35 34 35 37 38 39 40 43 47 49 49 55 59 62 61 61 65 64 64 69 74 77 80
62 74 87 94 95 88 92 97 96 87 85 91 89 88 84 81 79 72 69 64 59 52 49 47 46 41 38 39 37 35 35 36 40 44 47 50 54 56 65 66 69 73 74 73 74 70 69 69 67 65 71 77 83 86
84 86 88 98 98 97 88 86 85 86 87 86 86 82 76 73 68 70 63 56 53 48 44 41 39 41 43 43 43 52 53 54 54 56 61 60 58 56 59 59 57 62 73 78 77 69 66 64 69 74 78 84 87 89
99 98 98 98 95 91 86 85 86 88 85 88 85 78 72 69 70 63 58 58 55 51 47 45 47 49 53 57 60 64 61 62 63 60 59 61 58 51 43 38 38 42 49 51 53 57 69 78 83 86 90 93 93 94
98 98 97 92 90 91 91 90 87 83 82 83 80 81 76 70 63 56 55 58 55 49 47 49 52 58 63 64 66 66 65 63 61 56 50 43 42 45 46 47 47 46 46 54 63 78 85 86 88 93 94 96 96 96
97 93 92 90 89 88 90 96 96 94 92 84 75 71 63 57 55 59 60 59 56 54 54 57 61 66 70 72 70 66 58 46 41 41 41 46 49 50 53 55 56 55 54 61 70 77 81 85 92 93 96 98 98 98
94 92 91 92 92 90 89 88 84 77 71 63 58 56 56 56 62 63 62 61 60 64 65 69 70 72 71 61 49 46 45 44 45 46 47 56 56 56 60 63 65 65 66 71 76 80 84 89 92 95 98 99 99 99
86 84 78 76 70 67 65 64 60 57 56 53 56 60 64 60 61 63 65 68 73 78 78 76 67 55 51 51 50 50 49 47 48 48 50 52 51 52 55 58 61 65 70 73 77 81 84 90 93 96 99 99 99 99
77 74 72 66 64 66 65 63 63 60 60 64 68 67 65 66 69 72 75 78 77 72 63 55 52 51 52 53 55 57 56 54 54 54 54 52 52 52 54 55 59 66 71 75 80 84 87 90 93 95 97 99 99 99
64 65 66 66 65 66 64 63 63 65 66 71 72 73 72 73 70 68 65 60 54 49 48 49 53 56 58 59 58 55 53 50 45 41 40 41 41 43 46 53 59 63 71 76 81 85 89 91 93 96 99 99 99 99
74 74 72 72 76 73 70 69 67 65 64 61 59 56 54 53 50 44 43 46 49 54 54 55 56 56 53 52 48 43 37 35 35 36 36 37 35 36 37 39 42 49 63 75 79 84 89 91 95 99 99 99 99 99
61 60 56 51 51 50 49 42 45 46 48 49 51 49 50 50 52 53 55 56 59 60 58 56 55 52 47 38 33 35 35 33 34 39 41 43 42 42 42 42 44 48 53 60 74 82 90 92 96 99 99 99 99 98

GFSWCAN_prec_cthk_030.txt.gz
RH
93 84 89 94 89 80 77 75 71 65 56 58 62 66 64 54 49 44 40 39 39 39 44 43 42 42 41 40 44 44 47 47 51 51 52 52 48 43 40 38 40 39 45 48 50 52 47 30 36 38 35 43 51 55
93 81 89 94 89 80 75 75 72 67 60 54 52 56 57 55 48 42 39 38 35 36 45 47 47 45 44 44 44 47 43 45 46 50 51 51 48 47 42 42 35 36 32 39 39 39 31 33 35 34 39 49 55 59
87 80 87 94 88 82 76 74 74 70 62 56 51 46 45 48 46 43 40 39 37 37 41 47 51 51 50 47 47 48 50 49 47 41 45 45 41 42 44 43 38 33 35 40 41 34 37 39 42 42 51 56 61 64
83 78 84 92 89 85 80 76 73 72 69 63 57 51 46 43 40 40 39 38 36 34 38 44 46 48 51 51 49 50 47 46 43 42 45 45 44 39 41 36 40 32 37 38 43 43 45 46 46 48 56 63 66 72
85 79 79 87 92 88 85 80 76 74 73 70 66 58 50 46 43 39 37 36 36 36 39 42 42 43 42 43 44 44 44 44 45 48 53 53 49 48 49 48 42 35 36 40 41 39 42 42 47 53 63 69 76 77
90 85 80 80 86 91 89 84 80 77 75 73 70 65 61 55 51 46 44 42 40 39 38 42 44 44 44 44 43 43 44 46 48 48 51 50 48 46 53 53 37 36 38 40 41 43 44 45 52 63 70 73 78 80
95 89 84 78 76 78 83 85 82 78 77 75 72 68 64 63 61 54 49 49 47 45 43 49 48 47 46 47 48 49 49 50 51 52 52 52 52 55 57 55 44 44 43 43 44 49 58 62 69 72 78 82 84 84
99 96 88 82 77 73 73 75 82 81 76 74 72 70 66 64 63 62 59 56 54 51 49 53 52 50 53 56 59 60 62 62 61 65 64 64 65 68 64 50 47 47 49 52 58 61 65 74 77 83 93 88 86 82
99 98 97 92 86 83 80 71 67 73 78 76 71 71 70 67 64 62 59 56 55 55 56 55 53 53 56 62 66 68 70 72 69 70 71 70 68 63 52 51 50 51 54 58 68 75 82 85 92 89 88 87 85 84
91 96 94 93 90 85 86 85 77 70 68 71 72 71 69 68 67 63 62 58 56 57 57 55 54 58 58 64 68 70 69 70 68 64 65 64 59 54 52 60 68 69 72 77 82 86 89 90 90 91 86 86 85 75
83 81 79 85 90 90 91 95 88 78 71 69 69 70 69 67 66 66 66 65 65 64 62 62 63 63 67 73 77 77 81 82 76 69 74 71 71 68 65 67 74 78 80 85 89 94 94 95 94 91 89 81 70 62
69 71 76 77 73 79 89 92 91 88 81 76 75 76 77 76 75 76 78 81 81 81 78 75 72 76 85 83 85 92 94 92 89 86 88 82 76 78 79 81 82 82 85 89 92 95 96 94 87 82 74 65 61 57
58 63 64 65 69 76 76 79 95 99 95 92 92 97 98 94 95 94 91 86 85 84 85 85 89 91 93 94 98 98 98 96 93 93 90 87 87 87 88 88 87 88 89 88 87 86 84 81 77 69 64 61 58 52
53 54 57 60 64 65 65 70 77 88 97 98 98 98 98 96 93 92 90 89 90 91 92 92 95 97 96 98 99 99 98 98 96 92 87 91 93 93 88 86 85 83 86 86 82 82 80 74 69 65 62 55 47 43
45 48 51 50 54 58 61 61 63 66 69 85 93 97 97 95 95 94 95 95 95 95 95 96 96 96 96 98 97 97 97 96 96 93 92 94 93 96 91 92 90 85 83 82 81 78 73 67 62 53 48 44 42 39
32 39 43 44 45 44 46 52 56 59 60 60 67 76 83 87 92 95 97 97 97 97 98 98 98 98 98 98 98 98 98 97 97 96 96 97 95 95 94 93 88 85 82 82 79 72 63 54 49 46 42 38 36 35
17 27 32 34 39 40 37 37 42 43 49 57 61 61 62 64 69 73 78 83 86 89 91 94 96 97 97 98 98 98 98 98 97 93 91 91 92 93 92 91 92 90 83 73 63 54 49 45 41 39 36 36 37 40
19 22 27 29 31 30 32 34 37 42 48 52 56 57 59 61 63 64 63 64 64 66 70 73 76 81 85 88 92 92 92 93 93 93 94 92 89 86 83 79 76 70 60 50 43 41 40 39 37 37 40 41 40 43
21 21 21 24 30 32 34 36 38 42 46 47 50 53 56 59 59 60 60 60 60 62 65 69 74 75 76 74 78 79 81 80 76 73 70 66 64 63 59 52 46 44 40 38 36 37 39 43 46 49 51 51 51 52
24 25 23 23 26 33 39 41 41 41 46 52 54 56 58 60 60 59 58 59 61 62 64 66 66 66 67 62 57 56 56 54 51 49 48 46 43 37 35 33 33 35 38 42 46 50 51 52 56 56 55 53 51 52
23 25 28 28 29 35 44 46 45 46 48 48 51 54 61 63 62 62 61 63 65 65 64 62 58 56 58 58 56 52 50 46 43 39 36 34 35 35 34 35 38 42 46 47 47 48 52 53 51 45 41 42 49 56
26 26 26 26 33 41 45 49 49 52 53 54 55 59 61 64 66 67 68 67 69 68 67 64 62 64 64 60 55 47 40 36 35 35 36 36 35 37 41 44 45 44 47 50 50 47 43 40 38 38 39 39 41 47
33 32 34 33 35 41 53 55 57 58 60 61 63 63 66 68 72 75 75 74 74 75 78 77 73 69 64 60 52 46 40 39 40 40 41 44 47 48 51 51 50 49 46 42 42 42 41 41 43 45 46 50 56 65
40 39 40 42 46 51 53 63 70 73 69 67 72 74 75 77 80 82 82 84 85 83 76 72 70 65 61 54 49 47 47 48 48 48 49 50 51 52 54 54 49 47 46 45 43 42 42 44 48 51 54 56 61 67
48 52 52 52 53 59 67 70 72 71 72 74 84 91 94 90 82 82 80 81 81 80 78 75 70 63 59 55 53 53 54 55 57 56 53 52 54 56 52 49 49 47 44 42 41 41 43 47 49 51 53 59 64 69
63 62 73 89 73 76 86 86 86 88 90 92 97 96 91 89 90 83 85 84 84 83 78 77 72 62 57 56 56 56 58 59 59 57 54 56 56 52 49 46 42 41 43 43 42 41 40 41 42 45 48 53 60 68
85 86 90 96 97 97 90 93 97 98 98 97 96 97 95 93 87 84 89 88 84 79 74 64 59 59 57 56 57 61 64 64 64 62 58 52 50 48 46 44 40 38 35 34 33 33 33 33 35 40 45 51 58 64
94 95 96 97 98 98 98 98 97 98 98 98 98 98 97 94 93 90 82 78 74 71 67 63 62 63 64 66 70 71 68 59 48 43 46 49 49 43 39 36 34 31 29 29 29 29 32 34 36 40 45 50 55 64
97 98 98 98 98 98 98 98 98 98 98 97 94 92 88 84 81 78 75 71 69 68 69 71 73 74 71 67 59 48 43 41 40 42 43 43 41 39 34 30 28 28 29 30 32 35 37 39 42 46 52 56 60 66
97 98 97 95 96 93 89 88 87 85 83 80 78 76 74 71 70 71 71 72 74 76 76 74 69 61 53 46 44 43 43 45 46 47 43 37 31 29 29 30 30 31 32 33 34 36 40 42 46 50 56 60 64 68
91 88 84 81 80 78 76 74 75 74 73 72 72 71 72 74 74 74 71 68 64 59 55 50 48 48 48 48 49 51 51 49 43 36 31 30 31 33 33 33 34 35 36 36 40 43 45 47 51 55 59 63 67 72
77 75 75 76 74 74 71 68 67 65 65 62 57 52 51 51 51 49 49 49 49 50 50 51 51 52 52 53 53 49 42 35 32 32 32 33 34 34 34 35 39 42 40 41 45 47 49 53 57 61 64 69 73 79
59 58 57 56 54 52 49 39 44 47 48 48 47 49 51 55 57 55 53 53 55 54 52 52 53 53 53 51 46 42 36 34 34 35 36 36 35 35 37 41 44 44 42 45 49 52 54 59 64 67 70 73 77 82

GFSWCAN_prec_cthk_036.txt.gz
RH
88 89 90 82 74 69 66 70 75 74 65 57 49 47 37 32 43 48 70 69 60 48 44 43 40 41 38 39 41 42 45 46 46 47 50 51 49 47 45 42 49 50 54 54 52 52 41 25 30 33 30 28 29 34
89 84 79 76 71 69 71 76 79 74 67 62 55 42 34 35 42 47 65 62 57 52 54 50 46 44 42 38 37 44 45 44 42 47 48 49 51 49 46 45 43 45 40 42 40 37 28 28 29 30 32 34 35 37
87 86 81 72 68 74 74 76 82 78 71 66 55 41 40 46 75 85 78 66 55 51 53 51 49 45 43 43 46 45 43 40 40 41 44 44 43 45 47 47 42 39 36 38 36 29 31 33 33 36 38 39 41 43
81 79 84 83 79 76 73 81 79 80 73 63 48 46 46 56 69 78 70 62 53 51 55 56 54 53 52 48 46 43 41 42 41 41 44 46 41 40 43 39 40 36 36 38 40 37 37 36 36 37 38 41 45 51
90 85 85 86 87 80 78 76 73 77 77 68 62 50 48 54 59 61 57 50 45 42 48 53 51 51 51 51 49 48 47 48 49 51 52 49 43 43 45 46 42 37 39 44 44 36 38 37 39 41 43 47 52 57
93 94 92 89 87 83 81 74 72 69 71 77 73 70 64 59 57 53 51 49 43 39 37 51 50 53 52 54 54 53 50 49 48 46 46 46 43 45 53 53 37 39 42 44 43 45 47 48 50 51 53 57 63 71
95 96 93 93 89 85 80 76 72 69 65 63 62 61 60 58 54 50 46 46 41 37 35 44 45 45 46 45 45 45 45 44 46 49 50 51 51 53 57 55 45 49 52 54 55 54 53 54 56 58 64 71 79 83
97 96 95 95 92 88 84 79 77 74 70 65 60 57 55 54 52 52 50 46 42 38 36 43 44 43 45 47 47 47 47 47 49 52 52 53 57 60 61 57 59 59 59 57 56 57 58 60 64 73 79 82 85 89
98 97 97 96 93 89 84 82 80 78 76 73 68 65 63 58 55 58 55 52 49 45 45 47 47 51 53 54 55 55 56 58 59 62 63 65 67 68 66 63 60 60 62 62 62 65 71 77 81 85 88 92 95 97
98 99 97 95 96 94 90 85 84 81 79 77 75 76 76 75 73 71 70 66 64 62 60 61 61 61 59 62 62 62 64 66 66 65 67 68 68 66 65 66 70 72 72 75 79 82 85 89 92 93 94 95 94 94
97 95 95 95 97 96 96 94 91 88 85 83 82 82 82 80 77 74 75 73 72 71 70 69 66 63 61 61 62 63 64 63 65 64 67 66 66 72 77 76 77 79 82 86 88 90 90 91 91 92 91 91 87 82
98 95 93 92 90 90 90 89 90 90 89 88 87 88 88 85 83 81 82 78 76 74 72 70 68 66 64 64 70 75 75 77 77 74 78 77 77 84 86 87 87 87 86 85 87 88 87 85 83 82 81 79 79 78
99 99 98 97 96 95 94 92 88 83 79 77 77 78 76 80 83 81 79 75 74 71 70 67 69 70 74 81 86 89 90 89 87 89 90 87 87 89 90 89 87 85 83 81 79 79 81 81 80 80 80 76 71 67
98 99 98 97 97 96 94 97 95 93 92 90 88 85 81 83 81 76 74 73 71 71 72 73 77 81 87 93 98 98 96 95 93 91 88 90 91 90 88 86 85 80 78 78 78 79 79 79 76 71 67 63 58 55
93 92 92 94 98 99 97 96 96 94 96 95 92 93 92 89 87 82 80 80 82 87 93 96 97 97 98 98 98 98 97 94 91 89 91 92 93 89 89 86 83 83 81 80 79 78 75 72 66 60 54 48 43 41
67 70 75 79 79 82 89 94 95 95 97 98 96 95 92 92 94 94 94 93 92 95 98 98 98 97 96 95 94 95 94 91 91 93 92 92 92 92 93 90 86 84 84 81 77 71 66 58 50 44 38 38 38 36
54 55 54 56 63 69 70 73 73 75 81 89 92 92 95 94 94 93 92 92 92 91 88 89 89 89 90 91 88 85 83 83 86 84 86 90 89 89 89 87 86 86 83 77 68 58 47 41 40 38 35 34 36 38
35 43 47 48 49 51 53 57 57 64 70 72 74 76 80 81 82 81 81 81 79 78 78 79 79 81 80 77 78 78 79 79 79 79 80 85 84 80 77 75 75 69 61 52 43 39 39 39 39 38 37 38 37 35
23 25 26 32 36 40 43 47 50 54 56 57 59 62 63 64 63 64 64 64 65 66 66 66 65 64 63 62 60 59 58 57 57 59 61 60 57 55 54 55 57 54 45 41 40 40 40 40 39 39 36 32 30 32
16 17 16 18 25 29 32 36 41 45 52 54 56 57 58 59 60 60 60 59 57 54 51 51 53 54 54 53 53 54 55 52 51 52 52 51 52 56 57 54 47 43 42 42 42 43 43 43 41 38 37 35 35 34
13 11 11 11 14 21 30 34 36 37 40 44 48 49 50 51 50 52 53 52 51 52 53 53 53 53 53 54 53 52 52 53 55 54 56 58 60 60 53 49 47 45 45 48 47 46 45 44 40 37 34 33 31 30
13 13 12 12 17 23 28 34 37 41 41 44 44 47 49 52 56 58 58 57 56 57 57 57 59 60 63 63 62 61 61 62 61 60 63 64 63 59 57 55 55 54 53 51 49 49 47 44 37 31 27 25 26 27
16 15 16 19 21 26 37 37 38 41 45 47 47 48 49 51 53 55 58 58 59 63 65 68 70 72 73 73 73 73 73 72 72 71 69 67 64 62 63 64 62 57 56 55 54 49 40 32 27 25 25 26 27 26
19 21 26 27 29 36 34 38 40 44 50 53 53 52 52 54 56 58 58 58 63 70 71 75 79 80 81 82 82 83 85 83 78 75 73 72 73 72 69 64 61 60 58 52 41 34 30 28 28 29 29 27 24 24
26 37 35 37 37 42 49 53 51 52 55 58 64 65 66 68 70 69 68 68 72 76 80 81 86 88 88 90 90 89 87 84 82 80 78 75 71 69 68 67 64 53 42 36 33 31 30 31 30 27 25 26 27 29
35 41 42 48 53 55 64 64 62 60 67 69 70 70 67 75 78 76 69 73 79 84 88 90 91 90 91 92 93 92 88 81 76 74 73 74 75 73 67 55 44 39 37 35 33 32 30 26 25 26 28 30 33 36
54 59 65 67 69 74 73 77 77 79 83 85 86 87 88 87 83 88 91 94 97 98 98 98 96 97 97 94 89 83 78 77 79 80 77 73 66 53 44 41 39 39 37 35 31 27 26 26 29 32 34 36 39 42
75 78 77 82 84 86 87 90 89 92 94 97 98 98 98 98 98 98 98 98 98 97 97 96 94 90 85 82 82 83 82 78 74 69 60 48 43 42 42 41 39 37 33 31 29 28 29 31 34 35 38 41 43 46
84 85 85 87 89 91 96 98 94 96 98 97 98 98 98 98 98 97 97 96 94 93 91 89 86 86 86 86 83 77 64 53 47 44 43 43 44 44 43 39 35 31 30 30 29 30 33 36 39 40 42 44 47 49
85 86 89 91 92 96 96 96 96 95 97 96 96 95 94 93 92 91 89 87 87 87 87 84 80 72 64 55 48 44 42 44 46 48 49 50 48 42 37 32 30 28 27 28 31 37 42 43 42 44 46 49 51 54
91 90 88 87 86 88 88 86 87 88 89 89 87 85 83 83 81 77 73 69 64 58 54 50 47 44 43 43 45 47 49 51 52 50 46 41 34 30 28 28 28 30 33 37 42 44 42 41 42 44 47 50 53 56
71 72 71 72 72 72 69 67 66 68 65 62 57 53 50 49 50 49 50 51 52 52 49 48 48 49 49 50 51 53 53 49 43 37 30 27 27 29 33 36 39 43 45 47 47 44 42 41 43 46 49 54 56 60
56 57 57 57 54 52 50 42 43 47 47 47 47 49 50 52 54 53 54 55 54 52 52 52 51 52 54 54 51 46 41 35 30 28 29 33 37 40 42 46 48 50 53 52 49 46 44 43 45 49 53 57 60 64

GFSWCAN_prec_cthk_042.txt.gz
RH
89 92 94 98 98 98 97 94 84 80 75 72 70 69 69 67 73 76 71 65 53 51 50 43 39 40 46 55 54 50 46 41 39 47 50 43 47 38 38 37 42 43 50 55 50 57 51 27 29 32 30 28 29 33
98 97 95 96 97 92 90 85 78 73 71 69 69 68 68 69 76 85 81 68 57 52 55 46 41 36 36 46 46 42 38 34 37 45 46 46 50 47 41 41 37 39 36 37 36 35 29 30 29 31 32 33 36 39
98 98 98 98 95 87 79 74 71 69 68 68 69 66 63 68 81 84 76 63 55 57 59 55 47 38 34 35 38 37 37 38 41 41 44 46 51 42 50 41 38 35 35 36 35 31 31 32 34 35 36 37 39 41
94 90 87 85 83 79 74 71 70 68 67 69 65 62 62 66 74 67 56 57 54 64 69 57 49 44 45 37 34 35 36 45 45 45 47 46 46 39 41 38 38 37 38 38 35 34 34 37 39 42 44 46 48 50
88 88 86 84 83 80 79 79 76 70 65 65 66 62 64 66 70 61 55 68 72 78 75 61 55 57 55 51 49 48 48 48 47 48 49 47 43 45 46 45 45 41 40 40 41 41 43 45 49 52 53 55 57 58
85 86 85 84 84 83 82 77 71 68 66 62 61 61 62 67 66 64 68 83 85 77 77 76 68 65 64 60 53 52 51 48 50 51 52 50 50 51 56 46 45 45 46 48 49 52 55 59 59 60 61 61 61 64
82 82 84 83 86 87 87 80 78 73 64 59 56 58 67 67 64 63 69 81 79 75 69 82 81 74 66 58 59 60 58 57 58 59 59 57 54 50 52 49 49 50 50 55 60 63 66 65 66 68 70 74 78 83
83 81 84 89 91 91 89 91 86 78 72 70 69 67 69 68 67 73 73 72 67 62 58 70 75 77 73 75 73 74 75 72 64 62 58 55 55 57 58 53 55 58 60 63 65 68 68 69 71 74 81 86 90 93
85 85 84 91 92 88 86 90 90 89 85 82 79 80 80 81 74 75 73 68 63 60 59 57 61 62 67 66 67 64 59 57 54 55 55 56 59 60 60 62 66 67 68 69 70 72 74 79 83 88 91 92 92 93
92 90 89 91 86 86 87 86 81 80 75 73 73 69 74 77 75 75 71 65 61 58 54 55 54 53 52 54 54 52 53 56 57 57 61 63 64 66 68 66 65 68 71 74 78 84 88 91 91 91 90 88 86 85
91 91 90 92 88 85 84 85 88 81 75 70 59 63 66 74 68 63 64 64 60 58 55 55 55 54 57 59 61 60 62 62 65 64 68 67 67 65 69 75 80 83 86 88 89 88 88 87 87 86 85 81 77 72
96 97 95 90 90 84 83 80 78 73 71 74 72 73 71 69 69 73 74 72 67 66 63 63 65 67 67 69 69 71 72 70 74 68 72 70 68 74 81 84 88 89 88 87 86 85 86 85 82 77 72 67 63 60
98 97 97 96 93 90 87 83 80 78 77 78 80 81 81 82 83 80 76 73 73 75 78 79 79 78 76 74 75 74 74 76 70 73 70 68 77 85 89 89 88 88 86 85 82 79 74 70 65 63 61 56 50 46
98 98 98 97 96 96 95 94 93 90 88 88 88 91 90 91 85 83 82 82 84 83 83 80 78 78 77 75 75 75 76 77 78 75 75 85 91 93 91 88 85 83 78 73 68 66 65 62 58 55 49 45 43 42
98 98 98 98 99 98 97 96 95 90 90 93 90 94 92 86 88 89 89 86 83 80 77 73 71 75 79 82 84 87 89 87 84 84 91 93 94 95 92 86 80 74 71 69 66 61 57 55 52 49 50 49 44 38
98 97 98 98 98 97 96 96 94 90 89 90 89 86 87 88 87 86 85 84 83 83 84 81 84 88 89 91 92 93 94 91 93 93 94 93 92 92 87 78 74 71 69 67 66 64 61 59 53 42 38 36 35 33
94 96 98 98 96 95 95 94 92 93 95 92 93 93 92 91 91 92 90 90 91 93 95 95 95 96 94 95 96 95 96 93 91 90 90 90 85 81 76 68 69 69 68 69 64 54 46 40 36 37 40 41 41 40
77 86 88 86 87 87 87 86 88 92 95 97 97 96 97 96 97 96 96 96 96 96 96 94 91 95 93 90 88 88 87 86 84 80 75 73 69 67 67 69 65 56 53 54 55 50 43 43 44 46 46 48 47 46
57 61 69 73 66 65 68 73 77 85 91 91 91 90 91 92 92 92 91 90 91 92 92 90 89 84 84 81 78 77 73 70 66 62 58 54 54 58 59 54 54 57 60 60 55 50 50 53 56 56 54 51 48 45
33 37 42 47 46 49 58 62 62 67 72 75 74 75 76 77 77 77 77 74 70 67 67 66 67 67 65 65 63 60 56 53 51 52 52 52 56 56 56 59 63 66 65 61 57 59 64 64 62 58 54 50 43 36
26 28 31 31 32 39 47 54 57 62 63 67 67 68 66 65 65 65 64 64 64 64 62 62 60 58 56 55 52 53 54 56 57 59 60 60 63 65 68 70 72 69 65 66 71 72 69 65 61 56 50 44 40 35
17 17 18 20 27 33 43 46 49 51 52 54 53 53 56 56 57 58 58 57 57 58 57 57 57 59 59 59 60 60 63 66 66 67 69 71 73 75 75 74 73 74 78 80 75 71 67 61 57 52 46 39 33 29
11 11 13 16 20 29 39 39 39 42 44 46 45 45 46 48 51 51 52 55 59 62 62 64 66 67 67 68 68 68 71 72 73 75 77 78 78 79 80 82 86 87 83 78 72 69 66 60 50 40 35 31 27 26
14 16 16 21 27 32 34 37 39 42 44 44 43 46 46 47 49 51 53 55 56 58 61 64 67 69 71 73 76 78 80 82 83 85 87 87 90 94 96 93 89 83 77 75 73 66 52 43 38 33 28 27 27 29
18 29 28 34 37 38 41 43 42 44 48 50 49 51 52 54 55 54 55 57 61 63 66 68 71 74 77 79 82 84 88 90 92 96 98 98 97 93 90 85 82 80 76 65 51 45 41 36 30 27 27 29 30 31
34 40 41 45 47 46 49 51 53 52 52 57 60 62 64 64 65 65 67 70 71 75 76 77 80 81 86 88 90 92 94 97 98 98 96 94 92 90 86 80 71 58 49 46 43 38 31 28 28 29 29 31 33 35
47 50 52 52 53 53 56 58 60 62 62 66 69 70 72 72 75 79 83 84 84 84 85 87 88 91 96 98 98 98 98 96 95 94 93 90 83 71 57 50 48 46 44 37 31 28 28 29 29 30 34 36 37 38
58 60 58 61 62 63 64 66 69 73 75 77 76 81 81 80 83 90 92 92 95 96 96 98 98 98 98 98 98 97 95 93 88 76 60 50 47 46 45 44 42 37 33 30 28 28 29 31 35 37 38 39 41 44
65 67 68 70 71 73 76 76 79 82 82 84 84 87 89 88 90 91 93 95 96 95 95 96 96 95 94 91 85 72 56 49 46 45 44 44 44 44 41 37 34 31 30 30 31 33 35 37 38 40 42 45 46 47
75 75 76 77 78 80 84 82 82 81 82 85 86 89 90 91 91 91 89 88 87 85 82 78 74 67 56 49 46 44 43 44 44 45 46 44 40 38 35 34 33 33 35 36 38 39 39 40 42 43 46 48 48 49
71 69 70 70 71 71 70 70 71 71 70 71 73 74 72 71 69 67 65 63 62 60 58 53 49 48 46 46 46 48 50 50 47 44 41 40 39 38 37 37 38 40 41 42 43 44 45 46 47 48 50 50 49 47
57 58 57 57 59 59 58 58 58 56 55 53 53 52 52 53 54 53 55 57 57 55 55 52 51 52 54 55 56 54 48 44 41 40 39 39 39 40 42 44 45 45 46 46 47 48 49 50 50 50 48 46 44 43
44 44 44 47 48 48 47 44 45 47 49 49 50 52 53 55 57 57 58 59 60 60 60 60 60 60 60 57 52 48 43 40 39 40 42 44 46 47 48 48 49 50 51 51 51 50 49 48 47 46 45 44 44 45

GFSWCAN_prec_cthk_045.txt.gz
RH
38 39 49 59 63 63 62 68 65 77 90 95 98 97 98 95 85 87 88 85 77 63 59 64 56 46 52 63 63 56 55 52 48 44 47 45 49 39 38 36 42 46 52 58 56 62 54 29 28 30 36 28 32 30
56 58 60 67 70 67 67 72 83 96 95 96 99 97 92 85 81 90 93 83 73 68 59 65 51 46 47 63 66 59 54 51 48 46 44 48 52 46 42 44 36 43 39 42 37 42 37 29 31 33 31 31 35 36
78 83 86 90 92 93 94 95 98 96 97 97 92 88 82 77 80 93 86 82 82 70 64 64 57 45 40 48 53 61 59 53 48 42 40 45 53 43 50 42 41 36 35 36 34 32 34 35 35 36 38 38 39 40
94 95 98 98 99 99 99 98 95 93 92 88 82 78 77 80 90 91 89 83 77 68 73 69 57 49 39 39 47 56 55 49 42 41 44 45 51 43 45 42 39 39 37 36 36 35 36 40 42 43 42 45 47 50
98 96 93 98 97 92 88 86 85 83 79 76 75 76 82 87 94 97 91 77 70 69 71 68 58 51 44 41 41 46 49 44 43 49 49 51 48 46 45 43 43 38 40 44 44 43 42 46 47 47 50 53 55 57
98 97 93 89 85 83 81 79 78 77 76 76 78 82 79 93 92 90 92 86 76 69 76 72 65 57 49 51 45 42 42 44 47 52 55 52 49 52 54 48 48 46 44 42 45 47 49 51 50 53 57 60 62 64
98 94 92 87 84 80 78 77 76 75 75 76 77 79 86 92 90 84 81 75 81 79 84 76 68 61 62 62 59 56 53 54 59 58 57 57 54 53 56 53 47 43 44 48 49 52 56 59 64 66 67 67 69 71
98 99 94 90 88 84 78 76 75 77 77 77 78 80 84 88 83 82 80 74 81 87 89 84 76 72 69 69 68 64 65 63 62 63 65 63 61 62 60 50 48 48 50 52 56 59 63 68 69 69 71 74 81 85
92 94 97 95 93 87 83 78 76 78 77 79 81 82 87 89 86 80 77 80 83 72 74 80 87 81 79 76 74 72 69 75 75 75 74 73 70 61 53 50 54 57 60 62 65 67 68 70 73 79 86 88 86 86
91 94 95 94 91 88 88 86 82 77 77 77 83 88 90 87 79 81 81 82 78 73 68 70 76 78 81 83 82 79 79 79 72 70 66 66 58 54 56 60 62 63 67 69 69 73 78 83 86 88 87 84 85 85
92 96 96 95 93 94 92 88 87 84 82 81 83 85 85 86 81 80 79 79 75 72 70 72 68 68 68 71 71 68 65 61 64 59 59 60 60 61 66 66 66 70 75 78 80 83 85 85 85 84 83 77 73 69
88 90 93 92 95 93 92 91 89 86 82 82 80 83 84 83 82 83 82 77 73 73 68 66 62 59 59 60 59 60 62 61 66 61 67 64 66 71 70 70 76 79 79 82 84 85 85 85 82 76 70 64 54 46
92 91 89 88 91 94 92 87 79 74 73 76 78 78 79 82 87 86 79 72 69 66 67 64 62 61 63 63 67 68 72 75 69 76 73 71 71 69 70 74 79 82 83 85 86 83 78 71 62 59 52 45 44 38
92 92 92 93 92 89 91 90 85 81 83 76 77 83 87 88 86 78 73 72 71 71 70 69 71 76 79 80 82 86 85 81 81 78 71 68 70 76 82 86 88 88 86 83 79 69 63 58 54 48 45 42 40 40
96 95 96 94 93 92 91 90 86 82 85 89 88 90 85 86 84 82 81 81 81 83 83 84 85 83 84 85 83 82 84 82 75 73 75 82 88 93 93 91 89 83 77 72 69 62 58 53 51 47 45 44 40 34
97 98 97 97 96 93 91 88 87 86 90 94 90 91 90 89 89 88 90 91 91 91 88 85 85 85 83 82 81 82 83 82 84 87 90 93 96 95 92 89 83 77 72 70 68 62 58 55 49 39 36 35 35 34
98 97 98 98 98 97 97 97 97 98 97 97 98 97 93 92 90 86 85 86 85 85 85 83 85 87 86 88 90 90 91 93 96 97 97 97 95 92 88 83 75 73 73 70 67 64 51 44 41 40 42 43 41 45
97 98 97 95 93 94 95 93 92 94 97 97 97 97 97 97 95 93 92 92 92 93 93 92 92 97 98 97 96 95 96 95 92 91 90 90 86 78 76 74 71 68 67 61 54 52 51 48 49 50 52 51 53 58
76 86 87 88 84 79 82 85 92 93 97 97 98 98 98 98 98 97 96 95 96 97 96 94 95 94 96 96 95 94 93 91 88 81 73 70 70 69 65 60 58 57 57 57 58 59 56 53 55 57 57 58 60 63
56 66 72 70 59 58 70 79 85 92 95 96 96 96 95 94 94 94 93 94 92 92 93 94 95 92 87 81 76 74 70 68 65 63 59 55 54 56 60 63 63 62 63 63 64 62 62 64 66 65 65 63 62 58
41 39 37 38 48 55 66 72 74 77 78 81 82 82 79 76 75 75 75 76 72 73 72 72 72 71 70 68 69 67 65 59 57 58 59 59 58 60 65 67 70 72 74 76 70 70 71 74 72 69 68 65 57 53
26 26 28 32 39 45 54 59 61 61 64 65 63 62 63 63 64 65 64 64 66 67 67 66 65 64 63 62 61 60 62 64 66 67 69 69 70 73 76 78 79 79 77 76 78 79 81 78 74 70 64 56 49 45
16 18 22 26 31 37 47 49 48 52 53 53 55 55 56 57 58 58 59 60 61 61 61 61 62 63 64 65 66 68 71 73 74 74 75 76 78 80 82 83 83 85 87 88 86 83 79 76 70 59 50 44 41 37
14 16 19 26 29 35 38 42 42 45 44 45 43 46 47 48 48 49 50 51 54 55 58 61 63 65 66 67 69 72 74 76 77 78 81 83 85 88 89 92 96 93 88 85 82 80 74 60 48 46 42 36 35 34
18 29 30 33 37 36 40 41 43 43 46 47 48 50 51 51 52 52 52 56 59 60 62 63 66 68 70 72 74 77 79 83 84 85 90 94 94 96 97 92 89 87 85 81 71 55 49 44 40 33 29 33 34 35
34 39 40 41 44 43 46 47 46 47 50 52 54 56 58 59 59 61 63 66 68 68 68 70 74 76 77 80 82 86 88 91 96 98 98 98 97 97 95 94 89 80 59 50 46 42 36 31 28 28 33 36 36 37
44 47 46 46 47 47 50 52 53 53 55 58 59 61 65 64 64 70 72 74 75 77 79 80 82 85 87 90 91 94 96 98 98 98 97 94 89 81 69 58 52 49 44 38 32 29 28 29 32 36 37 38 40 41
53 54 52 54 54 54 55 58 60 63 66 68 68 68 70 72 72 72 76 82 84 85 86 88 91 92 95 97 98 98 98 95 90 82 71 59 51 50 51 46 41 36 32 30 29 31 32 33 35 39 41 42 42 42
60 62 61 62 62 63 65 68 71 74 75 77 77 77 78 79 80 80 82 84 85 87 87 88 90 90 89 87 83 76 65 54 54 53 55 55 53 50 41 36 35 35 34 35 36 36 37 37 39 41 42 42 44 46
71 70 69 71 71 73 75 75 76 77 77 77 77 77 77 79 81 81 81 80 79 78 76 75 71 67 62 55 50 45 45 45 47 47 47 46 43 38 37 38 38 39 39 41 41 42 43 44 45 47 47 48 49 50
62 62 62 63 65 67 65 65 65 66 66 66 67 67 66 67 67 67 66 65 64 63 62 61 54 53 51 48 50 53 58 53 49 45 42 39 38 39 43 42 44 45 45 46 46 47 48 48 51 51 51 51 50 48
49 49 49 53 54 55 54 56 56 53 51 51 51 50 51 53 53 53 55 56 58 60 58 60 58 53 54 57 59 58 54 49 44 40 40 42 44 46 47 47 47 47 47 48 49 51 52 53 52 51 49 49 48 45
41 41 41 42 42 44 44 42 45 45 46 47 49 51 52 54 55 57 58 59 59 58 56 56 58 61 63 61 57 52 45 42 42 44 46 45 43 42 41 42 44 45 47 47 48 48 48 48 49 49 49 48 48 49